User: anonymous   Login
Location: Newark
(48.4472°N, 1.4892°E)
Time: 12:57:02
(UTC+00:00)
Language:

SR - Orbit

View from above orbital plane
View from above orbital plane
View from above satellite
View from above satellite

Ground track
Ground track

The orbit data is extracted from the following two-line orbital elements,

1    46U 60007B   19324.81220578 -.00000019 +00000-0 +19420-4 0  9996
2    46 066.6906 252.9718 0217256 286.8564 070.8821 14.49259068108734
Epoch (UTC): 20 November 2019 19:29:34
Eccentricity: 0.0217256
inclination: 66.6906°
perigee height: 573 km
apogee height: 882 km
right ascension of ascending node: 252.9718°
argument of perigee: 286.8564°
revolutions per day: 14.49259068
mean anomaly at epoch: 70.8821°
orbit number at epoch: 10873

The dashed part of the orbit path shows where the satellite is in the earth's shadow,  

DLR